contact:dominique.lefevre@mio.osupytheas.fr, maurice.libes@osupytheas.fr, didier.mallarino@osupytheas.fr
Project:EMSO http://www.emso-fr.org/EMSO-France
Depth: 2436.0 m
Title:EMSO Ligure Ouest : Data MII capteur MICROCAT
DateTime_Computer,Latitude,Longitude,Temperature,Conductivity,Pressure,DateTime_Instrument
DateTime_Computer,Latitude,Longitude,degC,S m-1,dbar,DateTime_Instrument
2022-03-21T00:02:53Z,42.805,6.029,13.3027,4.60051,2470.46,2022-3-21T02:04:29Z
2022-03-21T00:05:56Z,42.805,6.029,13.3029,4.60052,2470.413,2022-3-21T02:07:33Z
2022-03-21T00:08:59Z,42.805,6.029,13.3020,4.60055,2470.46,2022-3-21T02:10:36Z
2022-03-21T00:12:02Z,42.805,6.029,13.3029,4.60055,2470.427,2022-3-21T02:13:39Z
2022-03-21T00:15:06Z,42.805,6.029,13.3026,4.60057,2470.413,2022-3-21T02:16:42Z
2022-03-21T00:18:09Z,42.805,6.029,13.3033,4.60046,2470.437,2022-3-21T02:19:45Z
2022-03-21T00:21:12Z,42.805,6.029,13.3027,4.60056,2470.437,2022-3-21T02:22:48Z
2022-03-21T00:24:15Z,42.805,6.029,13.3026,4.60060,2470.413,2022-3-21T02:25:51Z
2022-03-21T00:27:18Z,42.805,6.029,13.3033,4.60057,2470.427,2022-3-21T02:28:54Z
2022-03-21T00:30:21Z,42.805,6.029,13.3036,4.60062,2470.437,2022-3-21T02:31:58Z
2022-03-21T00:33:24Z,42.805,6.029,13.3026,4.60051,2470.437,2022-3-21T02:35:01Z
2022-03-21T00:36:27Z,42.805,6.029,13.3023,4.60046,2470.437,2022-3-21T02:38:04Z
2022-03-21T00:39:31Z,42.805,6.029,13.3021,4.60050,2470.413,2022-3-21T02:41:07Z
2022-03-21T00:42:34Z,42.805,6.029,13.3028,4.60050,2470.437,2022-3-21T02:44:10Z
2022-03-21T00:45:37Z,42.805,6.029,13.3031,4.60055,2470.437,2022-3-21T02:47:13Z
2022-03-21T00:48:40Z,42.805,6.029,13.3030,4.60056,2470.45,2022-3-21T02:50:16Z
2022-03-21T00:51:43Z,42.805,6.029,13.3027,4.60069,2470.427,2022-3-21T02:53:19Z
2022-03-21T00:54:46Z,42.805,6.029,13.3021,4.60052,2470.427,2022-3-21T02:56:23Z
2022-03-21T00:57:49Z,42.805,6.029,13.3022,4.60046,2470.413,2022-3-21T02:59:26Z
2022-03-21T01:00:52Z,42.805,6.029,13.3029,4.60055,2470.427,2022-3-21T03:02:29Z
2022-03-21T01:03:56Z,42.805,6.029,13.3008,4.60044,2470.39,2022-3-21T03:05:32Z
2022-03-21T01:06:59Z,42.805,6.029,13.3015,4.60066,2470.413,2022-3-21T03:08:35Z
2022-03-21T01:10:02Z,42.805,6.029,13.3017,4.60062,2470.404,2022-3-21T03:11:38Z
2022-03-21T01:13:05Z,42.805,6.029,13.3015,4.60057,2470.404,2022-3-21T03:14:41Z
2022-03-21T01:16:08Z,42.805,6.029,13.3014,4.60064,2470.39,2022-3-21T03:17:44Z
2022-03-21T01:19:11Z,42.805,6.029,13.3018,4.60063,2470.437,2022-3-21T03:20:47Z
2022-03-21T01:22:14Z,42.805,6.029,13.3019,4.60067,2470.39,2022-3-21T03:23:51Z
2022-03-21T01:25:17Z,42.805,6.029,13.3017,4.60061,2470.39,2022-3-21T03:26:54Z
2022-03-21T01:28:21Z,42.805,6.029,13.3024,4.60061,2470.39,2022-3-21T03:29:57Z
2022-03-21T01:31:24Z,42.805,6.029,13.3018,4.60063,2470.39,2022-3-21T03:33:00Z
2022-03-21T01:34:27Z,42.805,6.029,13.3012,4.60063,2470.437,2022-3-21T03:36:03Z
2022-03-21T01:37:30Z,42.805,6.029,13.3020,4.60069,2470.427,2022-3-21T03:39:06Z
2022-03-21T01:40:33Z,42.805,6.029,13.3041,4.60062,2470.38,2022-3-21T03:42:09Z
2022-03-21T01:43:36Z,42.805,6.029,13.3028,4.60071,2470.366,2022-3-21T03:45:12Z
2022-03-21T01:46:39Z,42.805,6.029,13.3027,4.60051,2470.404,2022-3-21T03:48:16Z
2022-03-21T01:49:42Z,42.805,6.029,13.3020,4.60057,2470.366,2022-3-21T03:51:19Z
2022-03-21T01:52:46Z,42.805,6.029,13.3011,4.60067,2470.404,2022-3-21T03:54:22Z
2022-03-21T01:55:49Z,42.805,6.029,13.3016,4.60094,2470.404,2022-3-21T03:57:25Z
2022-03-21T01:58:52Z,42.805,6.029,13.3018,4.60078,2470.404,2022-3-21T04:00:28Z
2022-03-21T02:01:55Z,42.805,6.029,13.3036,4.60054,2470.38,2022-3-21T04:03:31Z
2022-03-21T02:04:58Z,42.805,6.029,13.3013,4.60070,2470.39,2022-3-21T04:06:34Z
2022-03-21T02:08:01Z,42.805,6.029,13.3021,4.60064,2470.38,2022-3-21T04:09:37Z
2022-03-21T02:11:04Z,42.805,6.029,13.3010,4.60076,2470.38,2022-3-21T04:12:41Z
2022-03-21T02:14:07Z,42.805,6.029,13.3025,4.60074,2470.38,2022-3-21T04:15:44Z
2022-03-21T02:17:10Z,42.805,6.029,13.3023,4.60049,2470.343,2022-3-21T04:18:47Z
2022-03-21T02:20:14Z,42.805,6.029,13.3021,4.60054,2470.39,2022-3-21T04:21:50Z
2022-03-21T02:23:17Z,42.805,6.029,13.3010,4.60055,2470.38,2022-3-21T04:24:53Z
2022-03-21T02:26:20Z,42.805,6.029,13.3022,4.60077,2470.32,2022-3-21T04:27:56Z
2022-03-21T02:29:23Z,42.805,6.029,13.3026,4.60069,2470.366,2022-3-21T04:30:59Z
2022-03-21T02:32:26Z,42.805,6.029,13.3026,4.60057,2470.366,2022-3-21T04:34:02Z
2022-03-21T02:35:29Z,42.805,6.029,13.3024,4.60054,2470.38,2022-3-21T04:37:06Z
2022-03-21T02:38:32Z,42.805,6.029,13.3021,4.60053,2470.353,2022-3-21T04:40:09Z
2022-03-21T02:41:35Z,42.805,6.029,13.3015,4.60059,2470.357,2022-3-21T04:43:12Z
2022-03-21T02:44:39Z,42.805,6.029,13.3019,4.60055,2470.343,2022-3-21T04:46:15Z
2022-03-21T02:47:42Z,42.805,6.029,13.3026,4.60062,2470.343,2022-3-21T04:49:18Z
2022-03-21T02:50:45Z,42.805,6.029,13.3030,4.60056,2470.366,2022-3-21T04:52:21Z
2022-03-21T02:53:48Z,42.805,6.029,13.3021,4.60060,2470.366,2022-3-21T04:55:24Z
2022-03-21T02:56:51Z,42.805,6.029,13.3012,4.60052,2470.343,2022-3-21T04:58:27Z
2022-03-21T02:59:54Z,42.805,6.029,13.3021,4.60054,2470.343,2022-3-21T05:01:31Z
2022-03-21T03:02:57Z,42.805,6.029,13.3015,4.60057,2470.357,2022-3-21T05:04:34Z
2022-03-21T03:06:00Z,42.805,6.029,13.3015,4.60056,2470.32,2022-3-21T05:07:37Z
2022-03-21T03:09:04Z,42.805,6.029,13.3019,4.60054,2470.357,2022-3-21T05:10:40Z
2022-03-21T03:12:07Z,42.805,6.029,13.3021,4.60046,2470.32,2022-3-21T05:13:43Z
2022-03-21T03:15:10Z,42.805,6.029,13.3018,4.60057,2470.366,2022-3-21T05:16:46Z
2022-03-21T03:18:13Z,42.805,6.029,13.3019,4.60058,2470.357,2022-3-21T05:19:49Z
2022-03-21T03:21:16Z,42.805,6.029,13.3012,4.60052,2470.32,2022-3-21T05:22:52Z
2022-03-21T03:24:19Z,42.805,6.029,13.3021,4.60056,2470.297,2022-3-21T05:25:56Z
2022-03-21T03:27:22Z,42.805,6.029,13.3026,4.60056,2470.32,2022-3-21T05:28:59Z
2022-03-21T03:30:25Z,42.805,6.029,13.3014,4.60052,2470.32,2022-3-21T05:32:02Z
2022-03-21T03:33:29Z,42.805,6.029,13.3028,4.60047,2470.32,2022-3-21T05:35:05Z
2022-03-21T03:36:32Z,42.805,6.029,13.3024,4.60052,2470.343,2022-3-21T05:38:08Z
2022-03-21T03:39:35Z,42.805,6.029,13.3015,4.60045,2470.306,2022-3-21T05:41:11Z
2022-03-21T03:42:38Z,42.805,6.029,13.3025,4.60049,2470.334,2022-3-21T05:44:14Z
2022-03-21T03:45:41Z,42.805,6.029,13.3029,4.60055,2470.38,2022-3-21T05:47:17Z
2022-03-21T03:48:44Z,42.805,6.029,13.3018,4.60044,2470.334,2022-3-21T05:50:21Z
2022-03-21T03:51:47Z,42.805,6.029,13.3021,4.60046,2470.32,2022-3-21T05:53:24Z
2022-03-21T03:54:50Z,42.805,6.029,13.3030,4.60048,2470.357,2022-3-21T05:56:27Z
2022-03-21T03:57:54Z,42.805,6.029,13.3021,4.60056,2470.357,2022-3-21T05:59:30Z
2022-03-21T04:00:57Z,42.805,6.029,13.3018,4.60051,2470.297,2022-3-21T06:02:33Z
2022-03-21T04:04:00Z,42.805,6.029,13.3026,4.60064,2470.334,2022-3-21T06:05:36Z
2022-03-21T04:07:03Z,42.805,6.029,13.3025,4.60052,2470.32,2022-3-21T06:08:39Z
2022-03-21T04:10:06Z,42.805,6.029,13.3008,4.60044,2470.32,2022-3-21T06:11:42Z
2022-03-21T04:13:09Z,42.805,6.029,13.3018,4.60044,2470.334,2022-3-21T06:14:45Z
2022-03-21T04:16:12Z,42.805,6.029,13.3017,4.60052,2470.343,2022-3-21T06:17:49Z
2022-03-21T04:19:15Z,42.805,6.029,13.3023,4.60050,2470.334,2022-3-21T06:20:52Z
2022-03-21T04:22:18Z,42.805,6.029,13.3021,4.60051,2470.357,2022-3-21T06:23:55Z
2022-03-21T04:25:22Z,42.805,6.029,13.3025,4.60059,2470.343,2022-3-21T06:26:58Z
2022-03-21T04:28:25Z,42.805,6.029,13.3024,4.60053,2470.343,2022-3-21T06:30:01Z
2022-03-21T04:31:28Z,42.805,6.029,13.3017,4.60048,2470.343,2022-3-21T06:33:04Z
2022-03-21T04:34:31Z,42.805,6.029,13.3026,4.60053,2470.343,2022-3-21T06:36:07Z
2022-03-21T04:37:34Z,42.805,6.029,13.3033,4.60047,2470.343,2022-3-21T06:39:10Z
2022-03-21T04:40:37Z,42.805,6.029,13.3024,4.60046,2470.38,2022-3-21T06:42:14Z
2022-03-21T04:43:40Z,42.805,6.029,13.3023,4.60049,2470.343,2022-3-21T06:45:17Z
2022-03-21T04:46:43Z,42.805,6.029,13.3019,4.60052,2470.357,2022-3-21T06:48:20Z
2022-03-21T04:49:47Z,42.805,6.029,13.3016,4.60057,2470.32,2022-3-21T06:51:23Z
2022-03-21T04:52:50Z,42.805,6.029,13.3012,4.60053,2470.366,2022-3-21T06:54:26Z
2022-03-21T04:55:53Z,42.805,6.029,13.3024,4.60046,2470.39,2022-3-21T06:57:29Z
2022-03-21T04:58:56Z,42.805,6.029,13.3021,4.60060,2470.366,2022-3-21T07:00:32Z
2022-03-21T05:01:59Z,42.805,6.029,13.3036,4.60051,2470.366,2022-3-21T07:03:35Z
2022-03-21T05:05:02Z,42.805,6.029,13.3029,4.60051,2470.357,2022-3-21T07:06:39Z
2022-03-21T05:08:05Z,42.805,6.029,13.3022,4.60048,2470.366,2022-3-21T07:09:42Z
2022-03-21T05:11:08Z,42.805,6.029,13.3028,4.60051,2470.404,2022-3-21T07:12:45Z
2022-03-21T05:14:12Z,42.805,6.029,13.3022,4.60049,2470.45,2022-3-21T07:15:48Z
2022-03-21T05:17:15Z,42.805,6.029,13.3025,4.60046,2470.39,2022-3-21T07:18:51Z
2022-03-21T05:20:18Z,42.805,6.029,13.3021,4.60046,2470.413,2022-3-21T07:21:54Z
2022-03-21T05:23:21Z,42.805,6.029,13.3012,4.60045,2470.343,2022-3-21T07:24:57Z
2022-03-21T05:26:24Z,42.805,6.029,13.3026,4.60056,2470.38,2022-3-21T07:28:00Z
2022-03-21T05:29:27Z,42.805,6.029,13.3010,4.60046,2470.39,2022-3-21T07:31:03Z
2022-03-21T05:32:30Z,42.805,6.029,13.3021,4.60054,2470.39,2022-3-21T07:34:07Z
2022-03-21T05:35:33Z,42.805,6.029,13.3018,4.60042,2470.404,2022-3-21T07:37:10Z
2022-03-21T05:38:37Z,42.805,6.029,13.3022,4.60048,2470.404,2022-3-21T07:40:13Z
2022-03-21T05:41:40Z,42.805,6.029,13.3014,4.60046,2470.404,2022-3-21T07:43:16Z
2022-03-21T05:44:43Z,42.805,6.029,13.3016,4.60045,2470.413,2022-3-21T07:46:19Z
2022-03-21T05:47:46Z,42.805,6.029,13.3026,4.60056,2470.427,2022-3-21T07:49:22Z
2022-03-21T05:50:49Z,42.805,6.029,13.3016,4.60044,2470.413,2022-3-21T07:52:25Z
2022-03-21T05:53:52Z,42.805,6.029,13.3026,4.60056,2470.427,2022-3-21T07:55:28Z
2022-03-21T05:56:55Z,42.805,6.029,13.3023,4.60061,2470.413,2022-3-21T07:58:32Z
2022-03-21T05:59:58Z,42.805,6.029,13.3025,4.60054,2470.437,2022-3-21T08:01:35Z
2022-03-21T06:03:01Z,42.805,6.029,13.3027,4.60049,2470.45,2022-3-21T08:04:38Z
2022-03-21T06:06:05Z,42.805,6.029,13.3024,4.60049,2470.46,2022-3-21T08:07:41Z
2022-03-21T06:09:08Z,42.805,6.029,13.3028,4.60055,2470.46,2022-3-21T08:10:44Z
2022-03-21T06:12:11Z,42.805,6.029,13.3024,4.60061,2470.45,2022-3-21T08:13:47Z
2022-03-21T06:15:14Z,42.805,6.029,13.3023,4.60059,2470.46,2022-3-21T08:16:50Z
2022-03-21T06:18:17Z,42.805,6.029,13.3025,4.60047,2470.46,2022-3-21T08:19:53Z
2022-03-21T06:21:20Z,42.805,6.029,13.3028,4.60052,2470.46,2022-3-21T08:22:57Z
2022-03-21T06:24:23Z,42.805,6.029,13.3024,4.60054,2470.437,2022-3-21T08:26:00Z
2022-03-21T06:27:26Z,42.805,6.029,13.3021,4.60052,2470.483,2022-3-21T08:29:03Z
2022-03-21T06:30:30Z,42.805,6.029,13.3021,4.60057,2470.46,2022-3-21T08:32:06Z
2022-03-21T06:33:33Z,42.805,6.029,13.3021,4.60043,2470.483,2022-3-21T08:35:09Z
2022-03-21T06:36:36Z,42.805,6.029,13.3026,4.60051,2470.497,2022-3-21T08:38:12Z
2022-03-21T06:39:39Z,42.805,6.029,13.3022,4.60049,2470.507,2022-3-21T08:41:15Z
2022-03-21T06:42:42Z,42.805,6.029,13.3027,4.60052,2470.497,2022-3-21T08:44:18Z
2022-03-21T06:45:45Z,42.805,6.029,13.3023,4.60054,2470.483,2022-3-21T08:47:21Z
2022-03-21T06:48:48Z,42.805,6.029,13.3025,4.60064,2470.544,2022-3-21T08:50:25Z
2022-03-21T06:51:51Z,42.805,6.029,13.3022,4.60059,2470.507,2022-3-21T08:53:28Z
2022-03-21T06:54:55Z,42.805,6.029,13.3031,4.60050,2470.53,2022-3-21T08:56:31Z
2022-03-21T06:57:58Z,42.805,6.029,13.3016,4.60054,2470.507,2022-3-21T08:59:34Z
2022-03-21T07:01:01Z,42.805,6.029,13.3017,4.60052,2470.544,2022-3-21T09:02:37Z
2022-03-21T07:04:04Z,42.805,6.029,13.3018,4.60054,2470.507,2022-3-21T09:05:40Z
2022-03-21T07:07:07Z,42.805,6.029,13.3025,4.60059,2470.52,2022-3-21T09:08:43Z
2022-03-21T07:10:10Z,42.805,6.029,13.3028,4.60062,2470.52,2022-3-21T09:11:46Z
2022-03-21T07:13:13Z,42.805,6.029,13.3021,4.60055,2470.53,2022-3-21T09:14:50Z
2022-03-21T07:16:16Z,42.805,6.029,13.3021,4.60059,2470.544,2022-3-21T09:17:53Z
2022-03-21T07:19:19Z,42.805,6.029,13.3016,4.60044,2470.507,2022-3-21T09:20:56Z
2022-03-21T07:22:23Z,42.805,6.029,13.3019,4.60049,2470.553,2022-3-21T09:23:59Z
2022-03-21T07:25:26Z,42.805,6.029,13.3027,4.60053,2470.53,2022-3-21T09:27:02Z
2022-03-21T07:28:29Z,42.805,6.029,13.3026,4.60049,2470.553,2022-3-21T09:30:05Z
2022-03-21T07:31:32Z,42.805,6.029,13.3018,4.60052,2470.53,2022-3-21T09:33:08Z
2022-03-21T07:34:35Z,42.805,6.029,13.3026,4.60058,2470.544,2022-3-21T09:36:11Z
2022-03-21T07:37:38Z,42.805,6.029,13.3025,4.60057,2470.553,2022-3-21T09:39:15Z
2022-03-21T07:40:41Z,42.805,6.029,13.3029,4.60059,2470.544,2022-3-21T09:42:18Z
2022-03-21T07:43:44Z,42.805,6.029,13.3021,4.60054,2470.553,2022-3-21T09:45:21Z
2022-03-21T07:46:48Z,42.805,6.029,13.3020,4.60048,2470.553,2022-3-21T09:48:24Z
2022-03-21T07:49:51Z,42.805,6.029,13.3025,4.60051,2470.53,2022-3-21T09:51:27Z
2022-03-21T07:52:54Z,42.805,6.029,13.3022,4.60054,2470.567,2022-3-21T09:54:30Z
2022-03-21T07:55:57Z,42.805,6.029,13.3019,4.60055,2470.553,2022-3-21T09:57:33Z
2022-03-21T07:59:00Z,42.805,6.029,13.3023,4.60056,2470.553,2022-3-21T10:00:36Z
2022-03-21T08:02:03Z,42.805,6.029,13.3018,4.60050,2470.553,2022-3-21T10:03:40Z
2022-03-21T08:05:06Z,42.805,6.029,13.3014,4.60054,2470.553,2022-3-21T10:06:43Z
2022-03-21T08:08:09Z,42.805,6.029,13.3021,4.60057,2470.553,2022-3-21T10:09:46Z
2022-03-21T08:11:13Z,42.805,6.029,13.3023,4.60057,2470.577,2022-3-21T10:12:49Z
2022-03-21T08:14:16Z,42.805,6.029,13.3022,4.60057,2470.567,2022-3-21T10:15:52Z
2022-03-21T08:17:19Z,42.805,6.029,13.3024,4.60055,2470.553,2022-3-21T10:18:55Z
2022-03-21T08:20:22Z,42.805,6.029,13.3024,4.60049,2470.553,2022-3-21T10:21:58Z
2022-03-21T08:23:25Z,42.805,6.029,13.3019,4.60055,2470.591,2022-3-21T10:25:01Z
2022-03-21T08:26:28Z,42.805,6.029,13.3019,4.60049,2470.553,2022-3-21T10:28:05Z
2022-03-21T08:29:31Z,42.805,6.029,13.3019,4.60045,2470.6,2022-3-21T10:31:08Z
2022-03-21T08:32:34Z,42.805,6.029,13.3020,4.60062,2470.567,2022-3-21T10:34:11Z
2022-03-21T08:35:38Z,42.805,6.029,13.3021,4.60059,2470.553,2022-3-21T10:37:14Z
2022-03-21T08:38:41Z,42.805,6.029,13.3033,4.60054,2470.553,2022-3-21T10:40:17Z
2022-03-21T08:41:44Z,42.805,6.029,13.3029,4.60055,2470.553,2022-3-21T10:43:20Z
2022-03-21T08:44:47Z,42.805,6.029,13.3026,4.60057,2470.567,2022-3-21T10:46:23Z
2022-03-21T08:47:50Z,42.805,6.029,13.3019,4.60063,2470.53,2022-3-21T10:49:26Z
2022-03-21T08:50:53Z,42.805,6.029,13.3038,4.60051,2470.567,2022-3-21T10:52:30Z
2022-03-21T08:53:56Z,42.805,6.029,13.3029,4.60049,2470.567,2022-3-21T10:55:33Z
2022-03-21T08:56:59Z,42.805,6.029,13.3031,4.60056,2470.553,2022-3-21T10:58:36Z
2022-03-21T09:00:03Z,42.805,6.029,13.3022,4.60050,2470.567,2022-3-21T11:01:39Z
2022-03-21T09:03:06Z,42.805,6.029,13.3026,4.60052,2470.553,2022-3-21T11:04:42Z
2022-03-21T09:06:09Z,42.805,6.029,13.3028,4.60045,2470.553,2022-3-21T11:07:45Z
2022-03-21T09:09:12Z,42.805,6.029,13.3024,4.60054,2470.6,2022-3-21T11:10:48Z
2022-03-21T09:12:15Z,42.805,6.029,13.3021,4.60050,2470.577,2022-3-21T11:13:51Z
2022-03-21T09:15:18Z,42.805,6.029,13.3019,4.60046,2470.591,2022-3-21T11:16:55Z
2022-03-21T09:18:21Z,42.805,6.029,13.3031,4.60055,2470.591,2022-3-21T11:19:58Z
2022-03-21T09:21:24Z,42.805,6.029,13.3019,4.60052,2470.553,2022-3-21T11:23:01Z
2022-03-21T09:24:28Z,42.805,6.029,13.3021,4.60048,2470.591,2022-3-21T11:26:04Z
2022-03-21T09:27:31Z,42.805,6.029,13.3027,4.60053,2470.553,2022-3-21T11:29:07Z
2022-03-21T09:30:34Z,42.805,6.029,13.3025,4.60049,2470.553,2022-3-21T11:32:10Z
2022-03-21T09:33:37Z,42.805,6.029,13.3024,4.60044,2470.553,2022-3-21T11:35:13Z
2022-03-21T09:36:40Z,42.805,6.029,13.3019,4.60049,2470.591,2022-3-21T11:38:16Z
2022-03-21T09:39:43Z,42.805,6.029,13.3018,4.60052,2470.614,2022-3-21T11:41:20Z
2022-03-21T09:42:46Z,42.805,6.029,13.3019,4.60054,2470.53,2022-3-21T11:44:23Z
2022-03-21T09:45:49Z,42.805,6.029,13.3025,4.60059,2470.591,2022-3-21T11:47:26Z
2022-03-21T09:48:53Z,42.805,6.029,13.3030,4.60054,2470.553,2022-3-21T11:50:29Z
2022-03-21T09:51:56Z,42.805,6.029,13.3023,4.60050,2470.591,2022-3-21T11:53:32Z
2022-03-21T09:54:59Z,42.805,6.029,13.3035,4.60057,2470.567,2022-3-21T11:56:35Z
2022-03-21T09:58:02Z,42.805,6.029,13.3019,4.60048,2470.53,2022-3-21T11:59:38Z
2022-03-21T10:01:05Z,42.805,6.029,13.3024,4.60055,2470.567,2022-3-21T12:02:41Z
2022-03-21T10:04:08Z,42.805,6.029,13.3026,4.60055,2470.553,2022-3-21T12:05:45Z
2022-03-21T10:07:11Z,42.805,6.029,13.3029,4.60057,2470.567,2022-3-21T12:08:48Z
2022-03-21T10:10:14Z,42.805,6.029,13.3030,4.60056,2470.553,2022-3-21T12:11:51Z
2022-03-21T10:13:18Z,42.805,6.029,13.3034,4.60059,2470.52,2022-3-21T12:14:54Z
2022-03-21T10:16:21Z,42.805,6.029,13.3014,4.60062,2470.53,2022-3-21T12:17:57Z
2022-03-21T10:19:24Z,42.805,6.029,13.3014,4.60042,2470.553,2022-3-21T12:21:00Z
2022-03-21T11:13:09Z,42.805,6.029,13.3006,4.60041,2470.507,2022-3-21T13:14:45Z
2022-03-21T11:16:12Z,42.805,6.029,13.3004,4.60044,2470.507,2022-3-21T13:17:48Z
2022-03-21T11:19:15Z,42.805,6.029,13.3007,4.60044,2470.483,2022-3-21T13:20:51Z
2022-03-21T11:22:18Z,42.805,6.029,13.3004,4.60042,2470.483,2022-3-21T13:23:54Z
2022-03-21T11:25:21Z,42.805,6.029,13.3003,4.60049,2470.507,2022-3-21T13:26:58Z
2022-03-21T11:28:24Z,42.805,6.029,13.3009,4.60039,2470.483,2022-3-21T13:30:01Z
2022-03-21T11:31:27Z,42.805,6.029,13.3008,4.60042,2470.507,2022-3-21T13:33:04Z
2022-03-21T11:34:31Z,42.805,6.029,13.3007,4.60049,2470.474,2022-3-21T13:36:07Z
2022-03-21T11:37:34Z,42.805,6.029,13.3014,4.60045,2470.483,2022-3-21T13:39:10Z
2022-03-21T11:40:37Z,42.805,6.029,13.3019,4.60043,2470.45,2022-3-21T13:42:13Z
2022-03-21T11:43:40Z,42.805,6.029,13.3010,4.60045,2470.497,2022-3-21T13:45:16Z
2022-03-21T11:46:43Z,42.805,6.029,13.3015,4.60042,2470.483,2022-3-21T13:48:19Z
2022-03-21T11:49:46Z,42.805,6.029,13.3016,4.60049,2470.46,2022-3-21T13:51:22Z
2022-03-21T11:52:49Z,42.805,6.029,13.3014,4.60052,2470.474,2022-3-21T13:54:26Z
2022-03-21T11:55:52Z,42.805,6.029,13.3012,4.60052,2470.46,2022-3-21T13:57:29Z
2022-03-21T11:58:56Z,42.805,6.029,13.3019,4.60052,2470.46,2022-3-21T14:00:32Z
2022-03-21T12:01:59Z,42.805,6.029,13.3015,4.60055,2470.437,2022-3-21T14:03:35Z
2022-03-21T12:05:02Z,42.805,6.029,13.3010,4.60047,2470.46,2022-3-21T14:06:38Z
2022-03-21T12:08:05Z,42.805,6.029,13.3019,4.60045,2470.474,2022-3-21T14:09:41Z
2022-03-21T12:11:08Z,42.805,6.029,13.3010,4.60052,2470.46,2022-3-21T14:12:44Z
2022-03-21T12:14:11Z,42.805,6.029,13.3019,4.60052,2470.413,2022-3-21T14:15:48Z
2022-03-21T12:17:14Z,42.805,6.029,13.3008,4.60057,2470.437,2022-3-21T14:18:51Z
2022-03-21T12:20:17Z,42.805,6.029,13.3006,4.60044,2470.46,2022-3-21T14:21:54Z
2022-03-21T12:23:21Z,42.805,6.029,13.3018,4.60054,2470.437,2022-3-21T14:24:57Z
2022-03-21T12:26:24Z,42.805,6.029,13.3013,4.60056,2470.427,2022-3-21T14:28:00Z
2022-03-21T12:29:27Z,42.805,6.029,13.3019,4.60057,2470.437,2022-3-21T14:31:03Z
2022-03-21T12:32:30Z,42.805,6.029,13.3024,4.60056,2470.474,2022-3-21T14:34:06Z
2022-03-21T12:35:33Z,42.805,6.029,13.3024,4.60052,2470.437,2022-3-21T14:37:09Z
2022-03-21T12:38:36Z,42.805,6.029,13.3006,4.60049,2470.474,2022-3-21T14:40:12Z
2022-03-21T12:41:39Z,42.805,6.029,13.3014,4.60052,2470.413,2022-3-21T14:43:16Z
2022-03-21T12:44:42Z,42.805,6.029,13.3015,4.60046,2470.427,2022-3-21T14:46:19Z
2022-03-21T12:47:46Z,42.805,6.029,13.3026,4.60052,2470.46,2022-3-21T14:49:22Z
2022-03-21T12:50:49Z,42.805,6.029,13.3019,4.60054,2470.413,2022-3-21T14:52:25Z
2022-03-21T12:53:52Z,42.805,6.029,13.3021,4.60049,2470.437,2022-3-21T14:55:28Z
2022-03-21T12:56:55Z,42.805,6.029,13.3012,4.60049,2470.413,2022-3-21T14:58:31Z
2022-03-21T12:59:58Z,42.805,6.029,13.3015,4.60046,2470.427,2022-3-21T15:01:34Z
2022-03-21T13:03:01Z,42.805,6.029,13.3013,4.60044,2470.413,2022-3-21T15:04:38Z
2022-03-21T13:06:04Z,42.805,6.029,13.3017,4.60059,2470.437,2022-3-21T15:07:41Z
2022-03-21T13:09:07Z,42.805,6.029,13.3019,4.60057,2470.413,2022-3-21T15:10:44Z
2022-03-21T13:12:11Z,42.805,6.029,13.3021,4.60062,2470.413,2022-3-21T15:13:47Z
2022-03-21T13:15:14Z,42.805,6.029,13.3026,4.60055,2470.413,2022-3-21T15:16:50Z
2022-03-21T13:18:17Z,42.805,6.029,13.3014,4.60041,2470.39,2022-3-21T15:19:53Z
2022-03-21T13:21:20Z,42.805,6.029,13.3021,4.60054,2470.413,2022-3-21T15:22:56Z
2022-03-21T13:24:23Z,42.805,6.029,13.3033,4.60052,2470.38,2022-3-21T15:25:59Z
2022-03-21T13:27:26Z,42.805,6.029,13.3026,4.60077,2470.413,2022-3-21T15:29:02Z
2022-03-21T13:30:29Z,42.805,6.029,13.3029,4.60046,2470.366,2022-3-21T15:32:06Z
2022-03-21T13:33:32Z,42.805,6.029,13.3021,4.60044,2470.366,2022-3-21T15:35:09Z
2022-03-21T13:36:35Z,42.805,6.029,13.3029,4.60052,2470.427,2022-3-21T15:38:12Z
2022-03-21T13:39:39Z,42.805,6.029,13.3022,4.60042,2470.366,2022-3-21T15:41:15Z
2022-03-21T13:42:42Z,42.805,6.029,13.3015,4.60060,2470.39,2022-3-21T15:44:18Z
2022-03-21T13:45:45Z,42.805,6.029,13.3018,4.60058,2470.343,2022-3-21T15:47:21Z
2022-03-21T13:48:48Z,42.805,6.029,13.3014,4.60047,2470.343,2022-3-21T15:50:24Z
2022-03-21T13:51:51Z,42.805,6.029,13.3032,4.60049,2470.366,2022-3-21T15:53:28Z
2022-03-21T13:54:54Z,42.805,6.029,13.3015,4.60055,2470.39,2022-3-21T15:56:31Z
2022-03-21T13:57:57Z,42.805,6.029,13.3011,4.60059,2470.343,2022-3-21T15:59:34Z
2022-03-21T14:01:01Z,42.805,6.029,13.3017,4.60050,2470.343,2022-3-21T16:02:37Z
2022-03-21T14:04:04Z,42.805,6.029,13.3028,4.60062,2470.357,2022-3-21T16:05:40Z
2022-03-21T14:07:07Z,42.805,6.029,13.3021,4.60049,2470.357,2022-3-21T16:08:43Z
2022-03-21T14:10:10Z,42.805,6.029,13.3012,4.60062,2470.366,2022-3-21T16:11:46Z
2022-03-21T14:13:13Z,42.805,6.029,13.3024,4.60053,2470.357,2022-3-21T16:14:49Z
2022-03-21T14:16:16Z,42.805,6.029,13.3026,4.60059,2470.32,2022-3-21T16:17:52Z
2022-03-21T14:19:19Z,42.805,6.029,13.3008,4.60062,2470.32,2022-3-21T16:20:56Z
2022-03-21T14:22:22Z,42.805,6.029,13.3021,4.60058,2470.343,2022-3-21T16:23:59Z
2022-03-21T14:25:26Z,42.805,6.029,13.3022,4.60063,2470.32,2022-3-21T16:27:02Z
2022-03-21T14:28:29Z,42.805,6.029,13.3029,4.60060,2470.334,2022-3-21T16:30:05Z
2022-03-21T14:31:32Z,42.805,6.029,13.3037,4.60057,2470.334,2022-3-21T16:33:08Z
2022-03-21T14:34:35Z,42.805,6.029,13.3024,4.60050,2470.357,2022-3-21T16:36:11Z
2022-03-21T14:37:38Z,42.805,6.029,13.3033,4.60056,2470.343,2022-3-21T16:39:14Z
2022-03-21T14:40:41Z,42.805,6.029,13.3024,4.60063,2470.334,2022-3-21T16:42:18Z
2022-03-21T14:43:44Z,42.805,6.029,13.3029,4.60047,2470.32,2022-3-21T16:45:21Z
2022-03-21T14:46:47Z,42.805,6.029,13.3024,4.60074,2470.334,2022-3-21T16:48:24Z
2022-03-21T14:49:51Z,42.805,6.029,13.3016,4.60057,2470.343,2022-3-21T16:51:27Z
2022-03-21T14:52:54Z,42.805,6.029,13.3012,4.60054,2470.306,2022-3-21T16:54:30Z
2022-03-21T14:55:57Z,42.805,6.029,13.3019,4.60075,2470.334,2022-3-21T16:57:33Z
2022-03-21T14:59:00Z,42.805,6.029,13.3020,4.60048,2470.32,2022-3-21T17:00:36Z
2022-03-21T15:02:03Z,42.805,6.029,13.3023,4.60044,2470.297,2022-3-21T17:03:39Z
2022-03-21T15:05:06Z,42.805,6.029,13.3020,4.60050,2470.297,2022-3-21T17:06:43Z
2022-03-21T15:08:09Z,42.805,6.029,13.3015,4.60045,2470.297,2022-3-21T17:09:46Z
2022-03-21T15:11:12Z,42.805,6.029,13.3025,4.60053,2470.32,2022-3-21T17:12:49Z
2022-03-21T15:14:16Z,42.805,6.029,13.3041,4.60049,2470.32,2022-3-21T17:15:52Z
2022-03-21T15:17:19Z,42.805,6.029,13.3034,4.60052,2470.31,2022-3-21T17:18:55Z
2022-03-21T15:20:22Z,42.805,6.029,13.3019,4.60052,2470.297,2022-3-21T17:21:58Z
2022-03-21T15:23:25Z,42.805,6.029,13.3024,4.60047,2470.297,2022-3-21T17:25:01Z
2022-03-21T15:26:28Z,42.805,6.029,13.3021,4.60049,2470.31,2022-3-21T17:28:04Z
2022-03-21T15:29:31Z,42.805,6.029,13.3019,4.60050,2470.32,2022-3-21T17:31:08Z
2022-03-21T15:32:34Z,42.805,6.029,13.3019,4.60054,2470.297,2022-3-21T17:34:11Z
2022-03-21T15:35:37Z,42.805,6.029,13.3014,4.60047,2470.31,2022-3-21T17:37:14Z
2022-03-21T15:38:41Z,42.805,6.029,13.3027,4.60052,2470.273,2022-3-21T17:40:17Z
2022-03-21T15:41:44Z,42.805,6.029,13.3029,4.60052,2470.297,2022-3-21T17:43:20Z
2022-03-21T15:44:47Z,42.805,6.029,13.3026,4.60059,2470.32,2022-3-21T17:46:23Z
2022-03-21T15:47:50Z,42.805,6.029,13.3025,4.60053,2470.273,2022-3-21T17:49:26Z
2022-03-21T15:50:53Z,42.805,6.029,13.3029,4.60042,2470.297,2022-3-21T17:52:29Z
2022-03-21T15:53:56Z,42.805,6.029,13.3025,4.60049,2470.343,2022-3-21T17:55:33Z
2022-03-21T15:56:59Z,42.805,6.029,13.3020,4.60046,2470.32,2022-3-21T17:58:36Z
2022-03-21T16:00:02Z,42.805,6.029,13.3013,4.60049,2470.31,2022-3-21T18:01:39Z
2022-03-21T16:03:06Z,42.805,6.029,13.3021,4.60056,2470.32,2022-3-21T18:04:42Z
2022-03-21T16:06:09Z,42.805,6.029,13.3020,4.60056,2470.297,2022-3-21T18:07:45Z